Погода в Дачном

Украина / Одесская область     46°34′39″N   30°32′56″E
темп.,
°C
ветер,
м/с
пор.,
м/с
влажн.,
%
обл.,
%
осадки,
мм/ч
давл.,
гПа
погр.,
м
5 марта, пт
пт523:00+7ююз497862 0.0 1013193
02:00+7юз467779 0.0 1012101
05:00+6ссз227573 0.0 101222
08:00+6св487637 0.0 1011282
11:00+11всв455795 0.0 1012465
14:00+12юв225496 0.0 1011669
17:00+11ююв346299 0.0 1010185
20:00+7ю477397 0.0 1012153
6 марта, сб
сб623:00+8зсз6116799 0.0 1013341
02:00+6ссз81080100 0.0 1016841
05:00+2с91278100 0.0 1018775
08:00+1с81171100 0.0 1022797
11:00+4с7945100 0.0 10241275
14:00+5ссз7939100 0.0 10251673
17:00+4с67345 0.0 10261686
20:00+1с22433 0.0 102829
7 марта, вс
вс723:000зюз23450 0.0 103031
02:000з36585 0.0 1030146
05:00−2зсз37660 0.0 1029213
08:000зсз46500 0.0 1029556
11:00+4з58350 0.0 10271343
14:00+6зюз69390 0.0 10241488
17:00+6зюз69420 0.0 10211286
20:00+3юз49570 0.0 1020221
8 марта, пн
пн823:00+2юз5116525 0.0 1020286
02:00+1юз497344 0.0 1018205
05:000зюз477944 0.0 1017141
08:00+2з236922 0.0 1018120
11:00+7ссз12400 0.0 1017902
14:00+8юз223529 0.0 10161472
17:00+6ю4449100 0.0 1014430
20:00+4ююз346683 0.0 101589
9 марта, вт
вт923:00+3ююз12700 0.0 101522
02:00+2с22690 0.0 101522
05:00+1с49710 0.0 1016202
08:00+1с69780 0.0 1018509
11:00+4с67460 0.0 10201103
14:00+5с67370 0.0 10201440
17:00+4с56400 0.0 10201556
20:00+1ссв59566 0.0 1022519